SCP
0 0 0 0 0 0 0 0 0 0 0 0 0 0 0 0 0 0 0 0 0 0 0 0 0 0 0 0 0 0 0 0
0 0 0 0 0 0 0 0 0 0 0 0 0 0 0 0 0 0 0 0 0 0 0 0 0 0 0 0 0 0 0 0
0 0 0 0 0 0 0 0 0 0 0 0 0 0 0 0 0 0 0 0 0 0 0 0 0 0 0 0 0 0 0 0
0 0 0 0 0 0 0 0 0 0 0 0 0 0 0 0 0 0 0 0 0 0 0 0 0 0 0 0 0 0 0 0
0 0 0 0 0 0 0 0 0 0 0 0 0 0 0 0 0 0 0 0 0 0 0 0 0 0 0 0 0 0 0 0
0 0 0 0 0 0 0 0 0 0 0 0 0 0 0 0 0 0 0 0 0 0 0 0 0 0 0 0 0 0 0 0
0 0 0 0 0 0 0 0 0 0 0 0 0 0 0 0 0 0 0 0 0 0 0 0 0 0 0 0 0 0 0 0
0 0 0 0 0 0 0 0 0 0 0 0 0 0 0 0 0 0 0 0 0 0 0 0 0 0 0 0 0 0 0 0
0 0 0 0 0 0 0 0 0 0 0 0 0 0 0 0 0 0 0 0 0 0 0 0 0 0 0 0 0 0 0 0
0 0 0 0 0 0 0 0 0 0 0 0 0 0 0 0 0 0 0 0 0 0 0 0 0 0 0 0 0 0 0 0
0 0 0 0 0 0 0 0 0 0 0 0 0 0 0 0 0 0 0 0 0 0 0 0 0 0 0 0 0 0 0 0
-0 -0 0 0 0 0 0 0 0 0 -0 0 0 0 0 0 0 0 0 0 0 0 0 0 0 0 0 0 0 0 0 0
0 -0 -0 -0 -0 -0 -0 -0 -0 0 0 0 0 0 0 0 0 0 0 0 0 0 0 0 0 0 0 0 0 0 0 0
-0 -0 -0 -0 0 0 0 0 0 0 0 0 0 0 0 0 0 0 0 0 0 0 0 0 0 0 0 0 0 0 0 -0
0 -0 0 0 0 0 0 0 0 0 0 0 0 0 0 0 0 0 0 0 -0 0 0 -0 -0 0 0 0 -0 0 -0 0
0 0 0 0 0 0 0 0 0 0 0 0 0 0 0 0 0 -0 -0 -0 -0 -0 -0 -0 -0 0 0 -0 -0 -0 -0 -0
0 0 0 0 0 0 0 0 0 0 0 0 0 0 0 0 0 0 0 0 0 0 0 -0 0 0 0 0 0 0 0 -0
0 0 0 0 0 0 0 0 0 0 0 0 0 0 0 0 0 0 0 0 0 0 0 0 0 0 0 0 0 0 0 -0
0 0 0 0 0 0 0 0 0 0 0 0 0 0 0 0 0 0 0 0 0 0 0 0 0 0 0 0 0 -0 0 -0
0 0 0 0 0 0 0 0 0 0 -0 -0 -0 -0 -0 0 0 0 0 0 0 0 0 0 0 0 0 0 0 0 0 0
Wind_Speed_500mb
70 71 70 74 75 65 76 76 80 83 89 97 90 82 80 75 71 69 67 71 71 70 69 65 59 54 51 48 38 36 34 31
73 64 67 66 63 54 67 71 72 84 89 91 86 82 83 78 76 71 69 74 75 73 69 64 51 49 45 38 30 27 32 30
65 56 53 51 46 49 58 61 69 78 82 83 85 84 87 78 76 74 74 77 75 69 67 64 52 39 33 30 22 30 30 39
55 51 50 49 44 44 48 56 70 73 83 87 89 88 87 83 81 77 78 79 70 61 50 41 35 35 26 35 36 34 40 47
49 45 38 35 36 38 45 48 59 69 75 75 73 66 67 65 63 55 44 44 44 32 34 25 19 23 23 23 26 44 48 43
52 45 39 35 30 25 20 14 9 7 8 6 4 6 5 11 15 26 31 32 28 27 21 13 21 23 29 33 34 38 42 43
70 65 63 61 55 52 51 50 45 52 53 49 53 53 56 47 46 41 35 23 11 16 20 22 15 18 26 33 37 39 43 46
85 87 88 92 90 93 89 81 79 72 66 60 54 51 39 33 22 18 25 24 20 9 6 13 17 22 26 31 36 43 51 55
97 95 92 83 77 74 71 71 59 55 55 33 32 30 18 24 21 14 13 11 7 5 10 15 20 26 31 33 36 41 45 49
90 85 82 79 64 60 59 55 55 52 44 39 33 28 27 26 23 17 15 12 12 14 16 21 25 26 28 33 37 41 44 47
76 72 75 73 63 59 64 63 65 57 51 45 39 34 32 29 26 23 21 23 24 21 19 18 22 26 29 32 37 42 47 46
71 74 71 65 59 63 62 66 53 45 38 40 40 39 36 31 31 30 28 25 24 25 25 27 31 32 38 44 50 56 62 65
77 79 73 68 64 70 71 58 50 46 48 50 48 43 39 34 34 32 29 28 29 31 33 38 41 46 51 55 59 64 68 73
73 74 72 68 66 66 61 52 47 43 47 46 41 38 37 36 37 36 37 40 42 45 47 51 54 57 60 63 68 70 75 76
71 74 71 65 62 61 52 48 43 44 45 44 41 42 42 44 47 49 53 56 57 58 60 60 61 66 71 76 78 80 82 85
66 65 64 58 56 53 49 45 44 45 46 47 47 49 50 52 53 52 54 56 57 58 60 65 68 68 67 73 79 83 82 86
58 57 56 52 52 52 50 47 46 47 51 52 51 52 53 53 53 56 56 55 56 57 59 60 58 65 72 76 80 85 91 95
55 53 50 49 49 50 49 47 48 50 50 52 53 55 56 56 56 52 50 54 55 57 58 62 65 70 77 83 87 91 95 96
43 44 43 42 46 47 45 45 48 50 53 54 57 58 58 59 57 56 60 61 59 59 62 64 68 73 79 82 84 86 85 84
37 42 42 44 50 49 49 50 52 54 56 55 54 54 54 53 54 57 59 63 66 66 64 70 71 74 76 79 82 81 76 74
Wind_Direction_500mb
210 212 215 221 220 218 218 216 223 222 219 220 221 226 229 231 228 225 226 227 229 230 228 227 224 221 216 212 216 231 226 235
204 207 208 216 215 217 222 220 218 217 217 218 223 223 226 230 226 226 228 230 230 230 229 223 213 207 208 225 217 241 248 252
193 194 194 195 205 214 217 219 219 219 214 213 218 222 226 229 229 230 230 228 226 223 222 219 207 203 213 215 249 269 241 252
152 170 187 182 201 206 213 214 217 213 215 214 215 221 223 226 226 224 222 220 214 210 201 181 196 205 226 261 265 238 255 261
109 118 137 152 175 195 201 209 210 213 207 206 209 211 215 218 217 211 206 195 189 167 173 189 203 241 231 224 248 261 266 267
91 97 102 110 115 124 129 131 124 108 135 103 83 129 170 180 155 139 135 133 158 176 175 181 197 217 253 269 271 270 272 276
82 89 88 86 86 89 87 85 93 94 86 95 97 100 101 99 109 120 127 127 168 198 195 211 254 275 280 285 283 284 286 287
76 84 91 92 93 91 90 90 84 84 84 77 90 93 99 101 105 123 138 157 193 210 258 269 278 289 286 285 285 287 287 290
89 92 92 89 90 94 93 90 93 85 81 86 85 101 115 123 139 145 133 104 52 346 329 316 306 299 294 296 304 304 301 301
85 85 89 89 91 90 85 81 77 78 81 78 80 84 77 79 78 64 49 34 5 352 348 345 344 338 322 316 312 311 310 310
88 88 88 86 87 86 81 77 73 72 73 74 68 65 65 62 60 52 39 31 26 26 22 8 4 352 342 336 335 329 322 319
81 79 80 80 79 78 74 70 68 70 74 77 74 70 67 66 65 60 57 54 49 41 32 21 11 358 345 343 340 338 333 332
79 80 80 79 77 76 73 73 73 73 69 66 65 64 62 56 56 51 46 39 32 22 14 8 2 355 349 347 347 347 343 340
81 80 77 74 75 75 75 73 70 67 66 64 61 58 55 47 42 37 32 26 21 15 10 5 1 356 354 354 353 350 347 343
77 76 75 73 72 72 71 68 64 62 61 58 53 49 45 40 36 31 29 25 21 17 14 11 7 6 4 1 358 355 350 347
73 72 71 69 69 68 65 61 59 59 57 54 50 48 44 42 42 39 38 33 28 25 20 15 13 8 2 358 355 351 346 341
77 76 74 70 65 60 55 50 47 46 44 43 42 43 45 48 47 44 42 36 30 24 17 14 8 360 357 353 351 348 344 343
70 68 66 61 58 52 47 43 43 44 45 42 40 40 40 40 39 40 39 29 21 15 9 5 359 355 353 350 348 346 340 341
70 67 62 58 55 52 47 43 43 43 43 43 44 42 39 35 30 23 17 13 11 9 4 359 356 354 351 345 340 339 339 342
67 64 57 53 51 47 44 44 46 47 47 44 41 37 32 26 21 17 12 7 2 358 356 352 352 351 346 344 344 342 342 342
Wind_Speed_850mb
70 71 70 74 75 65 76 76 80 83 89 97 90 82 80 75 71 69 67 71 71 70 69 65 59 54 51 48 38 36 34 31
73 64 67 66 63 54 67 71 72 84 89 91 86 82 83 78 76 71 69 74 75 73 69 64 51 49 45 38 30 27 32 30
65 56 53 51 46 49 58 61 69 78 82 83 85 84 87 78 76 74 74 77 75 69 67 64 52 39 33 30 22 30 30 39
55 51 50 49 44 44 48 56 70 73 83 87 89 88 87 83 81 77 78 79 70 61 50 41 35 35 26 35 36 34 40 47
49 45 38 35 36 38 45 48 59 69 75 75 73 66 67 65 63 55 44 44 44 32 34 25 19 23 23 23 26 44 48 43
52 45 39 35 30 25 20 14 9 7 8 6 4 6 5 11 15 26 31 32 28 27 21 13 21 23 29 33 34 38 42 43
70 65 63 61 55 52 51 50 45 52 53 49 53 53 56 47 46 41 35 23 11 16 20 22 15 18 26 33 37 39 43 46
85 87 88 92 90 93 89 81 79 72 66 60 54 51 39 33 22 18 25 24 20 9 6 13 17 22 26 31 36 43 51 55
97 95 92 83 77 74 71 71 59 55 55 33 32 30 18 24 21 14 13 11 7 5 10 15 20 26 31 33 36 41 45 49
90 85 82 79 64 60 59 55 55 52 44 39 33 28 27 26 23 17 15 12 12 14 16 21 25 26 28 33 37 41 44 47
76 72 75 73 63 59 64 63 65 57 51 45 39 34 32 29 26 23 21 23 24 21 19 18 22 26 29 32 37 42 47 46
71 74 71 65 59 63 62 66 53 45 38 40 40 39 36 31 31 30 28 25 24 25 25 27 31 32 38 44 50 56 62 65
77 79 73 68 64 70 71 58 50 46 48 50 48 43 39 34 34 32 29 28 29 31 33 38 41 46 51 55 59 64 68 73
73 74 72 68 66 66 61 52 47 43 47 46 41 38 37 36 37 36 37 40 42 45 47 51 54 57 60 63 68 70 75 76
71 74 71 65 62 61 52 48 43 44 45 44 41 42 42 44 47 49 53 56 57 58 60 60 61 66 71 76 78 80 82 85
66 65 64 58 56 53 49 45 44 45 46 47 47 49 50 52 53 52 54 56 57 58 60 65 68 68 67 73 79 83 82 86
58 57 56 52 52 52 50 47 46 47 51 52 51 52 53 53 53 56 56 55 56 57 59 60 58 65 72 76 80 85 91 95
55 53 50 49 49 50 49 47 48 50 50 52 53 55 56 56 56 52 50 54 55 57 58 62 65 70 77 83 87 91 95 96
43 44 43 42 46 47 45 45 48 50 53 54 57 58 58 59 57 56 60 61 59 59 62 64 68 73 79 82 84 86 85 84
37 42 42 44 50 49 49 50 52 54 56 55 54 54 54 53 54 57 59 63 66 66 64 70 71 74 76 79 82 81 76 74
Wind_Direction_850mb
210 212 215 221 220 218 218 216 223 222 219 220 221 226 229 231 228 225 226 227 229 230 228 227 224 221 216 212 216 231 226 235
204 207 208 216 215 217 222 220 218 217 217 218 223 223 226 230 226 226 228 230 230 230 229 223 213 207 208 225 217 241 248 252
193 194 194 195 205 214 217 219 219 219 214 213 218 222 226 229 229 230 230 228 226 223 222 219 207 203 213 215 249 269 241 252
152 170 187 182 201 206 213 214 217 213 215 214 215 221 223 226 226 224 222 220 214 210 201 181 196 205 226 261 265 238 255 261
109 118 137 152 175 195 201 209 210 213 207 206 209 211 215 218 217 211 206 195 189 167 173 189 203 241 231 224 248 261 266 267
91 97 102 110 115 124 129 131 124 108 135 103 83 129 170 180 155 139 135 133 158 176 175 181 197 217 253 269 271 270 272 276
82 89 88 86 86 89 87 85 93 94 86 95 97 100 101 99 109 120 127 127 168 198 195 211 254 275 280 285 283 284 286 287
76 84 91 92 93 91 90 90 84 84 84 77 90 93 99 101 105 123 138 157 193 210 258 269 278 289 286 285 285 287 287 290
89 92 92 89 90 94 93 90 93 85 81 86 85 101 115 123 139 145 133 104 52 346 329 316 306 299 294 296 304 304 301 301
85 85 89 89 91 90 85 81 77 78 81 78 80 84 77 79 78 64 49 34 5 352 348 345 344 338 322 316 312 311 310 310
88 88 88 86 87 86 81 77 73 72 73 74 68 65 65 62 60 52 39 31 26 26 22 8 4 352 342 336 335 329 322 319
81 79 80 80 79 78 74 70 68 70 74 77 74 70 67 66 65 60 57 54 49 41 32 21 11 358 345 343 340 338 333 332
79 80 80 79 77 76 73 73 73 73 69 66 65 64 62 56 56 51 46 39 32 22 14 8 2 355 349 347 347 347 343 340
81 80 77 74 75 75 75 73 70 67 66 64 61 58 55 47 42 37 32 26 21 15 10 5 1 356 354 354 353 350 347 343
77 76 75 73 72 72 71 68 64 62 61 58 53 49 45 40 36 31 29 25 21 17 14 11 7 6 4 1 358 355 350 347
73 72 71 69 69 68 65 61 59 59 57 54 50 48 44 42 42 39 38 33 28 25 20 15 13 8 2 358 355 351 346 341
77 76 74 70 65 60 55 50 47 46 44 43 42 43 45 48 47 44 42 36 30 24 17 14 8 360 357 353 351 348 344 343
70 68 66 61 58 52 47 43 43 44 45 42 40 40 40 40 39 40 39 29 21 15 9 5 359 355 353 350 348 346 340 341
70 67 62 58 55 52 47 43 43 43 43 43 44 42 39 35 30 23 17 13 11 9 4 359 356 354 351 345 340 339 339 342
67 64 57 53 51 47 44 44 46 47 47 44 41 37 32 26 21 17 12 7 2 358 356 352 352 351 346 344 344 342 342 342